Weather History for KSLN - September, 2013

Change the Weather History Date:

Wednesday, September 11, 2013

  Actual Average Record
Temperature  
Mean Temperature 83 °F 72 °F  
Max Temperature 96 °F 84 °F 105 °F (1956)
Min Temperature 70 °F 61 °F 42 °F (1959)
Degree Days  
Heating Degree Days 0 1  
Month to date heating degree days 0 4  
Since 1 July heating degree days 3 5  
Cooling Degree Days 18 8  
Month to date cooling degree days 179 107  
Year to date cooling degree days 1573 1514  
Growing Degree Days 32 (Base 50)    
Moisture  
Dew Point 63 °F    
Average Humidity 65    
Maximum Humidity 93    
Minimum Humidity 36    
Precipitation  
Precipitation 0.19 in 0.09 in 2.17 in (2003)
Month to date precipitation 0.19 1.05  
Year to date precipitation 26.43 25.39  
Sea Level Pressure  
Sea Level Pressure 30.05 in    
Wind  
Wind Speed 8 mph (SW)    
Max Wind Speed 24 mph    
Max Gust Speed 30 mph    
Visibility 10 miles    
Events Rain , Thunderstorm    
T = Trace of Precipitation, MM = Missing Value Source: NWS Daily Summary

Daily Weather History Graph

Daily Weather History Graph

Search for Another Location

Airport or City:

Trip Planner

Search our weather history database for the weather conditions in past years. The results will help you decide how hot, cold, wet, or windy it might be!

Date:

Astronomy

Sep. 11, 2013 Rise Set
Actual Time 7:08 AM CDT 7:44 PM CDT
Civil Twilight 6:41 AM CDT 8:11 PM CDT
Nautical Twilight 6:10 AM CDT 8:43 PM CDT
Astronomical Twilight 5:37 AM CDT 9:15 PM CDT
Moon 1:34 PM CDT (9/11) 11:46 PM CDT (9/11)
Length of Visible Light 13h 29m
Length of Day
12h 36m
Waxing Crescent, 39% of the Moon is Illuminated
Sep 11
Waxing Crescent
Sep 12
First Quarter
Sep 19
Full
Sep 26
Last Quarter
Oct 4
New

Hourly Weather History & Observations

Time (CDT) Temp. Heat Index Dew Point Humidity Pressure Visibility Wind Dir Wind Speed Gust Speed Precip Events Conditions
12:53 AM 78.1 °F - 57.9 °F 50% 30.01 in 10.0 mi South 8.1 mph - N/A   Clear
1:53 AM 78.1 °F - 57.9 °F 50% 30.02 in 10.0 mi South 10.4 mph - N/A   Scattered Clouds
2:53 AM 77.0 °F - 57.9 °F 52% 30.03 in 10.0 mi South 9.2 mph - N/A   Clear
3:53 AM 75.9 °F - 57.9 °F 54% 30.03 in 10.0 mi South 9.2 mph - N/A   Clear
4:53 AM 73.9 °F - 57.9 °F 57% 30.03 in 10.0 mi South 9.2 mph - N/A   Scattered Clouds
5:53 AM 72.0 °F - 57.9 °F 61% 30.04 in 10.0 mi South 8.1 mph - N/A   Clear
6:53 AM 72.0 °F - 59.0 °F 64% 30.06 in 10.0 mi Calm Calm - N/A   Mostly Cloudy
7:53 AM 73.9 °F - 59.0 °F 59% 30.08 in 10.0 mi Calm Calm - N/A   Mostly Cloudy
8:53 AM 77.0 °F - 60.1 °F 56% 30.09 in 10.0 mi SSW 6.9 mph - N/A   Mostly Cloudy
9:53 AM 82.9 °F 83.7 °F 62.1 °F 49% 30.08 in 10.0 mi SW 5.8 mph - N/A   Partly Cloudy
10:53 AM 88.0 °F 89.3 °F 64.0 °F 45% 30.08 in 10.0 mi SW 10.4 mph - N/A   Partly Cloudy
11:53 AM 91.0 °F 92.6 °F 64.0 °F 41% 30.07 in 10.0 mi Variable 5.8 mph 16.1 mph N/A   Clear
12:53 PM 93.9 °F 95.2 °F 63.0 °F 36% 30.05 in 10.0 mi West 10.4 mph - N/A   Partly Cloudy
1:53 PM 93.0 °F 93.8 °F 62.1 °F 36% 30.04 in 10.0 mi SW 6.9 mph - N/A   Partly Cloudy
2:53 PM 93.0 °F 93.8 °F 62.1 °F 36% 30.02 in 10.0 mi SSW 8.1 mph - N/A   Partly Cloudy
3:53 PM 90.0 °F 90.6 °F 63.0 °F 40% 30.00 in 10.0 mi SW 13.8 mph 25.3 mph N/A   Clear
4:53 PM 89.1 °F 90.3 °F 64.0 °F 43% 29.98 in 10.0 mi Calm Calm - 0.00 in   Scattered Clouds
5:53 PM 89.1 °F 90.3 °F 64.0 °F 43% 29.99 in 10.0 mi Calm Calm - N/A   Clear
6:53 PM 88.0 °F 90.3 °F 66.0 °F 48% 29.99 in 10.0 mi ENE 3.5 mph - N/A   Scattered Clouds
7:16 PM 78.8 °F - 66.2 °F 65% 30.04 in 7.0 mi WNW 19.6 mph 28.8 mph 0.07 in Rain Light Rain
7:53 PM 75.9 °F - 66.9 °F 74% 30.01 in 10.0 mi NNW 17.3 mph 24.2 mph 0.08 in Rain , Thunderstorm Light Rain
8:22 PM 73.4 °F - 66.2 °F 78% 30.10 in 9.0 mi North 19.6 mph - 0.02 in Rain , Thunderstorm Light Rain
8:53 PM 73.9 °F - 70.0 °F 87% 30.08 in 10.0 mi North 16.1 mph - 0.02 in Thunderstorm Mostly Cloudy
9:53 PM 73.0 °F - 70.0 °F 90% 30.11 in 10.0 mi North 9.2 mph - 0.02 in Rain Light Rain
10:53 PM 73.0 °F - 69.1 °F 87% 30.11 in 10.0 mi NNE 8.1 mph - 0.00 in   Overcast
11:53 PM 72.0 °F - 69.1 °F 91% 30.10 in 10.0 mi North 8.1 mph - 0.02 in   Mostly Cloudy